Location: Milton Keynes
(52.0316°N, 0.7531°W)
Time: 23:34:50
(UTC+01:00)

Genesis I - Pass Details

Date: 31 January 2019
Orbit: 477 x 549 km, 64.5° (Epoch: 19 April)

Event Time Altitude Azimuth Distance (km) Brightness Sun altitude
Exits shadow 06:09:03 16° 327° (NNW) 1,509 5.2 -14.8°
Maximum altitude 06:10:07 17° 346° (NNW) 1,443 5.2 -14.6°
Drops below altitude 10° 06:12:52 10° 27° (NNE) 1,835 6.2 -14.2°
Sets 06:15:45 0° 49° (NE) 2,729 7.4 -13.8°
